Year,Month,Day,Hour,Minute,Value (Times are PST for temperature in C)
2017,08,27,00,00,16.80
2017,08,27,00,01,16.90
2017,08,27,00,02,17.00
2017,08,27,00,03,17.10
2017,08,27,00,04,17.10
2017,08,27,00,05,17.10
2017,08,27,00,06,17.00
2017,08,27,00,07,17.00
2017,08,27,00,08,16.90
2017,08,27,00,09,16.90
2017,08,27,00,10,16.80
2017,08,27,00,11,16.80
2017,08,27,00,12,16.80
2017,08,27,00,13,16.80
2017,08,27,00,14,16.80
2017,08,27,00,15,16.70
2017,08,27,00,16,16.70
2017,08,27,00,17,16.70
2017,08,27,00,18,16.70
2017,08,27,00,19,16.70
2017,08,27,00,20,16.70
2017,08,27,00,21,16.60
2017,08,27,00,22,16.60
2017,08,27,00,23,16.60
2017,08,27,00,24,16.60
2017,08,27,00,25,16.60
2017,08,27,00,26,16.60
2017,08,27,00,27,16.70
2017,08,27,00,28,16.70
2017,08,27,00,29,16.70
2017,08,27,00,30,16.70
2017,08,27,00,31,16.80
2017,08,27,00,32,16.80
2017,08,27,00,33,16.80
2017,08,27,00,34,16.80
2017,08,27,00,35,16.90
2017,08,27,00,36,16.90
2017,08,27,00,37,17.00
2017,08,27,00,38,17.00
2017,08,27,00,39,17.10
2017,08,27,00,40,17.20
2017,08,27,00,41,17.20
2017,08,27,00,42,17.20
2017,08,27,00,43,17.30
2017,08,27,00,44,17.30
2017,08,27,00,45,17.40
2017,08,27,00,46,17.40
2017,08,27,00,47,17.50
2017,08,27,00,48,17.50
2017,08,27,00,49,17.60
2017,08,27,00,50,17.60
2017,08,27,00,51,17.70
2017,08,27,00,52,17.70
2017,08,27,00,53,17.60
2017,08,27,00,54,17.60
2017,08,27,00,55,17.50
2017,08,27,00,56,17.50
2017,08,27,00,57,17.40
2017,08,27,00,58,17.30
2017,08,27,00,59,17.30
2017,08,27,01,00,17.20
2017,08,27,01,01,17.20
2017,08,27,01,02,17.10
2017,08,27,01,03,17.10
2017,08,27,01,04,17.00
2017,08,27,01,05,17.00
2017,08,27,01,06,17.00
2017,08,27,01,07,16.90
2017,08,27,01,08,16.90
2017,08,27,01,09,16.90
2017,08,27,01,10,16.90
2017,08,27,01,11,16.90
2017,08,27,01,12,16.90
2017,08,27,01,13,16.90
2017,08,27,01,14,16.90
2017,08,27,01,15,16.90
2017,08,27,01,16,16.90
2017,08,27,01,17,16.90
2017,08,27,01,18,16.90
2017,08,27,01,19,16.90
2017,08,27,01,20,16.90
2017,08,27,01,21,16.90
2017,08,27,01,22,17.00
2017,08,27,01,23,17.10
2017,08,27,01,24,17.20
2017,08,27,01,25,17.30
2017,08,27,01,26,17.30
2017,08,27,01,27,17.40
2017,08,27,01,28,17.50
2017,08,27,01,29,17.50
2017,08,27,01,30,17.60
2017,08,27,01,31,17.60
2017,08,27,01,32,17.50
2017,08,27,01,33,17.50
2017,08,27,01,34,17.50
2017,08,27,01,35,17.40
2017,08,27,01,36,17.40
2017,08,27,01,37,17.40
2017,08,27,01,38,17.40
2017,08,27,01,39,17.40
2017,08,27,01,40,17.40
2017,08,27,01,41,17.40
2017,08,27,01,42,17.40
2017,08,27,01,43,17.40
2017,08,27,01,44,17.40
2017,08,27,01,45,17.50
2017,08,27,01,46,17.50
2017,08,27,01,47,17.50
2017,08,27,01,48,17.60
2017,08,27,01,49,17.60
2017,08,27,01,50,17.60
2017,08,27,01,51,17.50
2017,08,27,01,52,17.50
2017,08,27,01,53,17.40
2017,08,27,01,54,17.40
2017,08,27,01,55,17.40
2017,08,27,01,56,17.30
2017,08,27,01,57,17.40
2017,08,27,01,58,17.40
2017,08,27,01,59,17.40
2017,08,27,02,00,17.50
2017,08,27,02,01,17.60
2017,08,27,02,02,17.60
2017,08,27,02,03,17.60
2017,08,27,02,04,17.50
2017,08,27,02,05,17.50
2017,08,27,02,06,17.40
2017,08,27,02,07,17.30
2017,08,27,02,08,17.30
2017,08,27,02,09,17.20
2017,08,27,02,10,17.10
2017,08,27,02,11,17.00
2017,08,27,02,12,16.90
2017,08,27,02,13,16.80
2017,08,27,02,14,16.80
2017,08,27,02,15,16.80
2017,08,27,02,16,16.70
2017,08,27,02,17,16.70
2017,08,27,02,18,16.70
2017,08,27,02,19,16.60
2017,08,27,02,20,16.60
2017,08,27,02,21,16.50
2017,08,27,02,22,16.50
2017,08,27,02,23,16.40
2017,08,27,02,24,16.40
2017,08,27,02,25,16.30
2017,08,27,02,26,16.30
2017,08,27,02,27,16.30
2017,08,27,02,28,16.20
2017,08,27,02,29,16.20
2017,08,27,02,30,16.10
2017,08,27,02,31,16.10
2017,08,27,02,32,16.10
2017,08,27,02,33,16.10
2017,08,27,02,34,16.10
2017,08,27,02,35,16.10
2017,08,27,02,36,16.00
2017,08,27,02,37,16.00
2017,08,27,02,38,16.00
2017,08,27,02,39,16.00
2017,08,27,02,40,16.00
2017,08,27,02,41,16.00
2017,08,27,02,42,16.00
2017,08,27,02,43,16.00
2017,08,27,02,44,16.10
2017,08,27,02,45,16.10
2017,08,27,02,46,16.10
2017,08,27,02,47,16.10
2017,08,27,02,48,16.10
2017,08,27,02,49,16.10
2017,08,27,02,50,16.20
2017,08,27,02,51,16.20
2017,08,27,02,52,16.20
2017,08,27,02,53,16.20
2017,08,27,02,54,16.30
2017,08,27,02,55,16.30
2017,08,27,02,56,16.30
2017,08,27,02,57,16.30
2017,08,27,02,58,16.40
2017,08,27,02,59,16.40
2017,08,27,03,00,16.40
2017,08,27,03,01,16.40
2017,08,27,03,02,16.40
2017,08,27,03,03,16.40
2017,08,27,03,04,16.40
2017,08,27,03,05,16.50
2017,08,27,03,06,16.60
2017,08,27,03,07,16.60
2017,08,27,03,08,16.70
2017,08,27,03,09,16.80
2017,08,27,03,10,16.90
2017,08,27,03,11,16.90
2017,08,27,03,12,17.00
2017,08,27,03,13,17.00
2017,08,27,03,14,17.10
2017,08,27,03,15,17.10
2017,08,27,03,16,17.10
2017,08,27,03,17,17.10
2017,08,27,03,18,17.10
2017,08,27,03,19,17.10
2017,08,27,03,20,17.10
2017,08,27,03,21,17.10
2017,08,27,03,22,17.10
2017,08,27,03,23,17.20
2017,08,27,03,24,17.20
2017,08,27,03,25,17.20
2017,08,27,03,26,17.20
2017,08,27,03,27,17.20
2017,08,27,03,28,17.10
2017,08,27,03,29,17.10
2017,08,27,03,30,17.10
2017,08,27,03,31,17.10
2017,08,27,03,32,17.10
2017,08,27,03,33,17.10
2017,08,27,03,34,17.10
2017,08,27,03,35,17.10
2017,08,27,03,36,17.10
2017,08,27,03,37,17.10
2017,08,27,03,38,17.00
2017,08,27,03,39,17.00
2017,08,27,03,40,17.00
2017,08,27,03,41,16.90
2017,08,27,03,42,16.90
2017,08,27,03,43,16.90
2017,08,27,03,44,16.80
2017,08,27,03,45,16.80
2017,08,27,03,46,16.80
2017,08,27,03,47,16.80
2017,08,27,03,48,16.80
2017,08,27,03,49,16.80
2017,08,27,03,50,16.70
2017,08,27,03,51,16.70
2017,08,27,03,52,16.70
2017,08,27,03,53,16.70
2017,08,27,03,54,16.60
2017,08,27,03,55,16.60
2017,08,27,03,56,16.60
2017,08,27,03,57,16.60
2017,08,27,03,58,16.60
2017,08,27,03,59,16.60
2017,08,27,04,00,16.60
2017,08,27,04,01,16.60
2017,08,27,04,02,16.50
2017,08,27,04,03,16.50
2017,08,27,04,04,16.50
2017,08,27,04,05,16.50
2017,08,27,04,06,16.50
2017,08,27,04,07,16.50
2017,08,27,04,08,16.40
2017,08,27,04,09,16.40
2017,08,27,04,10,16.40
2017,08,27,04,11,16.30
2017,08,27,04,12,16.30
2017,08,27,04,13,16.30
2017,08,27,04,14,16.30
2017,08,27,04,15,16.30
2017,08,27,04,16,16.30
2017,08,27,04,17,16.30
2017,08,27,04,18,16.30
2017,08,27,04,19,16.30
2017,08,27,04,20,16.30
2017,08,27,04,21,16.30
2017,08,27,04,22,16.20
2017,08,27,04,23,16.20
2017,08,27,04,24,16.20
2017,08,27,04,25,16.20
2017,08,27,04,26,16.20
2017,08,27,04,27,16.20
2017,08,27,04,28,16.20
2017,08,27,04,29,16.20
2017,08,27,04,30,16.20
2017,08,27,04,31,16.20
2017,08,27,04,32,16.20
2017,08,27,04,33,16.30
2017,08,27,04,34,16.30
2017,08,27,04,35,16.30
2017,08,27,04,36,16.30
2017,08,27,04,37,16.30
2017,08,27,04,38,16.30
2017,08,27,04,39,16.30
2017,08,27,04,40,16.40
2017,08,27,04,41,16.40
2017,08,27,04,42,16.50
2017,08,27,04,43,16.50
2017,08,27,04,44,16.60
2017,08,27,04,45,16.60
2017,08,27,04,46,16.60
2017,08,27,04,47,16.70
2017,08,27,04,48,16.70
2017,08,27,04,49,16.80
2017,08,27,04,50,16.80
2017,08,27,04,51,16.80
2017,08,27,04,52,16.80
2017,08,27,04,53,16.80
2017,08,27,04,54,16.80
2017,08,27,04,55,16.80
2017,08,27,04,56,16.80
2017,08,27,04,57,16.80
2017,08,27,04,58,16.80
2017,08,27,04,59,16.80
2017,08,27,05,00,16.80
2017,08,27,05,01,16.80
2017,08,27,05,02,16.80
2017,08,27,05,03,16.80
2017,08,27,05,04,16.80
2017,08,27,05,05,16.80
2017,08,27,05,06,16.80
2017,08,27,05,07,16.80
2017,08,27,05,08,16.80
2017,08,27,05,09,16.80
2017,08,27,05,10,16.80
2017,08,27,05,11,16.80
2017,08,27,05,12,16.80
2017,08,27,05,13,16.80
2017,08,27,05,14,16.80
2017,08,27,05,15,16.80
2017,08,27,05,16,16.80
2017,08,27,05,17,16.80
2017,08,27,05,18,16.80
2017,08,27,05,19,16.80
2017,08,27,05,20,16.80
2017,08,27,05,21,16.80
2017,08,27,05,22,16.80
2017,08,27,05,23,16.80
2017,08,27,05,24,16.70
2017,08,27,05,25,16.70
2017,08,27,05,26,16.70
2017,08,27,05,27,16.70
2017,08,27,05,28,16.70
2017,08,27,05,29,16.60
2017,08,27,05,30,16.60
2017,08,27,05,31,16.60
2017,08,27,05,32,16.50
2017,08,27,05,33,16.50
2017,08,27,05,34,16.40
2017,08,27,05,35,16.40
2017,08,27,05,36,16.40
2017,08,27,05,37,16.30
2017,08,27,05,38,16.30
2017,08,27,05,39,16.20
2017,08,27,05,40,16.20
2017,08,27,05,41,16.10
2017,08,27,05,42,16.10
2017,08,27,05,43,16.00
2017,08,27,05,44,16.00
2017,08,27,05,45,16.00
2017,08,27,05,46,15.90
2017,08,27,05,47,15.90
2017,08,27,05,48,15.90
2017,08,27,05,49,15.80
2017,08,27,05,50,15.80
2017,08,27,05,51,15.80
2017,08,27,05,52,15.80
2017,08,27,05,53,15.70
2017,08,27,05,54,15.70
2017,08,27,05,55,15.70
2017,08,27,05,56,15.70
2017,08,27,05,57,15.70
2017,08,27,05,58,15.60
2017,08,27,05,59,15.60
2017,08,27,06,00,15.60
2017,08,27,06,01,15.60
2017,08,27,06,02,15.60
2017,08,27,06,03,15.60
2017,08,27,06,04,15.50
2017,08,27,06,05,15.50
2017,08,27,06,06,15.50
2017,08,27,06,07,15.40
2017,08,27,06,08,15.40
2017,08,27,06,09,15.40
2017,08,27,06,10,15.40
2017,08,27,06,11,15.40
2017,08,27,06,12,15.40
2017,08,27,06,13,15.40
2017,08,27,06,14,15.40
2017,08,27,06,15,15.40
2017,08,27,06,16,15.40
2017,08,27,06,17,15.40
2017,08,27,06,18,15.40
2017,08,27,06,19,15.30
2017,08,27,06,20,15.30
2017,08,27,06,21,15.30
2017,08,27,06,22,15.30
2017,08,27,06,23,15.40
2017,08,27,06,24,15.40
2017,08,27,06,25,15.40
2017,08,27,06,26,15.40
2017,08,27,06,27,15.50
2017,08,27,06,28,15.50
2017,08,27,06,29,15.50
2017,08,27,06,30,15.60
2017,08,27,06,31,15.60
2017,08,27,06,32,15.60
2017,08,27,06,33,15.60
2017,08,27,06,34,15.60
2017,08,27,06,35,15.60
2017,08,27,06,36,15.70
2017,08,27,06,37,15.70
2017,08,27,06,38,15.70
2017,08,27,06,39,15.70
2017,08,27,06,40,15.70
2017,08,27,06,41,15.80
2017,08,27,06,42,15.80
2017,08,27,06,43,15.80
2017,08,27,06,44,15.80
2017,08,27,06,45,15.80
2017,08,27,06,46,15.90
2017,08,27,06,47,15.90
2017,08,27,06,48,15.90
2017,08,27,06,49,15.90
2017,08,27,06,50,15.90
2017,08,27,06,51,16.00
2017,08,27,06,52,16.00
2017,08,27,06,53,16.00
2017,08,27,06,54,16.00
2017,08,27,06,55,16.00
2017,08,27,06,56,16.00
2017,08,27,06,57,16.00
2017,08,27,06,58,16.00
2017,08,27,06,59,16.00
2017,08,27,07,00,16.10
2017,08,27,07,01,16.10
2017,08,27,07,02,16.10
2017,08,27,07,03,16.10
2017,08,27,07,04,16.10
2017,08,27,07,05,16.10
2017,08,27,07,06,16.10
2017,08,27,07,07,16.10
2017,08,27,07,08,16.00
2017,08,27,07,09,16.00
2017,08,27,07,10,16.00
2017,08,27,07,11,16.00
2017,08,27,07,12,16.00
2017,08,27,07,13,16.00
2017,08,27,07,14,16.00
2017,08,27,07,15,16.10
2017,08,27,07,16,16.10
2017,08,27,07,17,16.10
2017,08,27,07,18,16.10
2017,08,27,07,19,16.10
2017,08,27,07,20,16.10
2017,08,27,07,21,16.20
2017,08,27,07,22,16.20
2017,08,27,07,23,16.20
2017,08,27,07,24,16.30
2017,08,27,07,25,16.30
2017,08,27,07,26,16.30
2017,08,27,07,27,16.30
2017,08,27,07,28,16.40
2017,08,27,07,29,16.40
2017,08,27,07,30,16.40
2017,08,27,07,31,16.50
2017,08,27,07,32,16.50
2017,08,27,07,33,16.50
2017,08,27,07,34,16.60
2017,08,27,07,35,16.60
2017,08,27,07,36,16.60
2017,08,27,07,37,16.60
2017,08,27,07,38,16.60
2017,08,27,07,39,16.60
2017,08,27,07,40,16.60
2017,08,27,07,41,16.60
2017,08,27,07,42,16.60
2017,08,27,07,43,16.60
2017,08,27,07,44,16.70
2017,08,27,07,45,16.70
2017,08,27,07,46,16.70
2017,08,27,07,47,16.70
2017,08,27,07,48,16.70
2017,08,27,07,49,16.70
2017,08,27,07,50,16.70
2017,08,27,07,51,16.80
2017,08,27,07,52,16.80
2017,08,27,07,53,16.80
2017,08,27,07,54,16.80
2017,08,27,07,55,16.90
2017,08,27,07,56,16.90
2017,08,27,07,57,16.90
2017,08,27,07,58,17.00
2017,08,27,07,59,17.00
2017,08,27,08,00,17.10
2017,08,27,08,01,17.10
2017,08,27,08,02,17.20
2017,08,27,08,03,17.20
2017,08,27,08,04,17.30
2017,08,27,08,05,17.30
2017,08,27,08,06,17.40
2017,08,27,08,07,17.40
2017,08,27,08,08,17.50
2017,08,27,08,09,17.60
2017,08,27,08,10,17.60
2017,08,27,08,11,17.60
2017,08,27,08,12,17.70
2017,08,27,08,13,17.70
2017,08,27,08,14,17.80
2017,08,27,08,15,17.80
2017,08,27,08,16,17.90
2017,08,27,08,17,17.90
2017,08,27,08,18,17.90
2017,08,27,08,19,18.00
2017,08,27,08,20,18.00
2017,08,27,08,21,17.90
2017,08,27,08,22,17.90
2017,08,27,08,23,17.80
2017,08,27,08,24,17.80
2017,08,27,08,25,17.70
2017,08,27,08,26,17.60
2017,08,27,08,27,17.50
2017,08,27,08,28,17.40
2017,08,27,08,29,17.30
2017,08,27,08,30,17.20
2017,08,27,08,31,17.20
2017,08,27,08,32,17.10
2017,08,27,08,33,17.10
2017,08,27,08,34,17.10
2017,08,27,08,35,17.10
2017,08,27,08,36,17.10
2017,08,27,08,37,17.10
2017,08,27,08,38,17.10
2017,08,27,08,39,17.10
2017,08,27,08,40,17.10
2017,08,27,08,41,17.20
2017,08,27,08,42,17.20
2017,08,27,08,43,17.20
2017,08,27,08,44,17.20
2017,08,27,08,45,17.20
2017,08,27,08,46,17.20
2017,08,27,08,47,17.20
2017,08,27,08,48,17.20
2017,08,27,08,49,17.30
2017,08,27,08,50,17.30
2017,08,27,08,51,17.30
2017,08,27,08,52,17.30
2017,08,27,08,53,17.30
2017,08,27,08,54,17.30
2017,08,27,08,55,17.30
2017,08,27,08,56,17.30
2017,08,27,08,57,17.20
2017,08,27,08,58,17.20
2017,08,27,08,59,17.20
2017,08,27,09,00,17.10
2017,08,27,09,01,17.10
2017,08,27,09,02,17.00
2017,08,27,09,03,17.00
2017,08,27,09,04,17.00
2017,08,27,09,05,17.00
2017,08,27,09,06,16.90
2017,08,27,09,07,16.90
2017,08,27,09,08,16.90
2017,08,27,09,09,16.80
2017,08,27,09,10,16.80
2017,08,27,09,11,16.80
2017,08,27,09,12,16.80
2017,08,27,09,13,16.80
2017,08,27,09,14,16.80
2017,08,27,09,15,16.80
2017,08,27,09,16,16.80
2017,08,27,09,17,16.80
2017,08,27,09,18,16.80
2017,08,27,09,19,16.80
2017,08,27,09,20,16.90
2017,08,27,09,21,16.90
2017,08,27,09,22,16.90
2017,08,27,09,23,16.90
2017,08,27,09,24,17.00
2017,08,27,09,25,17.10
2017,08,27,09,26,17.10
2017,08,27,09,27,17.20
2017,08,27,09,28,17.20
2017,08,27,09,29,17.30
2017,08,27,09,30,17.30
2017,08,27,09,31,17.30
2017,08,27,09,32,17.40
2017,08,27,09,33,17.40
2017,08,27,09,34,17.50
2017,08,27,09,35,17.50
2017,08,27,09,36,17.50
2017,08,27,09,37,17.60
2017,08,27,09,38,17.60
2017,08,27,09,39,17.70
2017,08,27,09,40,17.70
2017,08,27,09,41,17.70
2017,08,27,09,42,17.70
2017,08,27,09,43,17.80
2017,08,27,09,44,17.80
2017,08,27,09,45,17.80
2017,08,27,09,46,17.90
2017,08,27,09,47,17.90
2017,08,27,09,48,18.00
2017,08,27,09,49,18.00
2017,08,27,09,50,18.10
2017,08,27,09,51,18.10
2017,08,27,09,52,18.10
2017,08,27,09,53,18.10
2017,08,27,09,54,18.20
2017,08,27,09,55,18.20
2017,08,27,09,56,18.20
2017,08,27,09,57,18.20
2017,08,27,09,58,18.30
2017,08,27,09,59,18.30
2017,08,27,10,00,18.30
2017,08,27,10,01,18.30
2017,08,27,10,02,18.30
2017,08,27,10,03,18.40
2017,08,27,10,04,18.40
2017,08,27,10,05,18.40
2017,08,27,10,06,18.40
2017,08,27,10,07,18.40
2017,08,27,10,08,18.40
2017,08,27,10,09,18.40
2017,08,27,10,10,18.50
2017,08,27,10,11,18.60
2017,08,27,10,12,18.60
2017,08,27,10,13,18.70
2017,08,27,10,14,18.70
2017,08,27,10,15,18.80
2017,08,27,10,16,18.80
2017,08,27,10,17,18.80
2017,08,27,10,18,18.90
2017,08,27,10,19,18.90
2017,08,27,10,20,18.80
2017,08,27,10,21,18.80
2017,08,27,10,22,18.80
2017,08,27,10,23,18.80
2017,08,27,10,24,18.80
2017,08,27,10,25,18.80
2017,08,27,10,26,18.80
2017,08,27,10,27,18.90
2017,08,27,10,28,18.90
2017,08,27,10,29,19.00
2017,08,27,10,30,19.00
2017,08,27,10,31,19.10
2017,08,27,10,32,19.20
2017,08,27,10,33,19.20
2017,08,27,10,34,19.30
2017,08,27,10,35,19.30
2017,08,27,10,36,19.40
2017,08,27,10,37,19.40
2017,08,27,10,38,19.50
2017,08,27,10,39,19.50
2017,08,27,10,40,19.50
2017,08,27,10,41,19.50
2017,08,27,10,42,19.60
2017,08,27,10,43,19.60
2017,08,27,10,44,19.60
2017,08,27,10,45,19.60
2017,08,27,10,46,19.60
2017,08,27,10,47,19.60
2017,08,27,10,48,19.70
2017,08,27,10,49,19.60
2017,08,27,10,50,19.70
2017,08,27,10,51,19.70
2017,08,27,10,52,19.80
2017,08,27,10,53,19.90
2017,08,27,10,54,19.90
2017,08,27,10,55,19.90
2017,08,27,10,56,20.00
2017,08,27,10,57,20.10
2017,08,27,10,58,20.10
2017,08,27,10,59,20.10
2017,08,27,11,00,20.00
2017,08,27,11,01,20.00
2017,08,27,11,02,20.10
2017,08,27,11,03,20.10
2017,08,27,11,04,20.10
2017,08,27,11,05,20.00
2017,08,27,11,06,20.00
2017,08,27,11,07,20.10
2017,08,27,11,08,20.20
2017,08,27,11,09,20.30
2017,08,27,11,10,20.30
2017,08,27,11,11,20.30
2017,08,27,11,12,20.40
2017,08,27,11,13,20.40
2017,08,27,11,14,20.40
2017,08,27,11,15,20.40
2017,08,27,11,16,20.40
2017,08,27,11,17,20.40
2017,08,27,11,18,20.40
2017,08,27,11,19,20.40
2017,08,27,11,20,20.40
2017,08,27,11,21,20.30
2017,08,27,11,22,20.30
2017,08,27,11,23,20.30
2017,08,27,11,24,20.30
2017,08,27,11,25,20.40
2017,08,27,11,26,20.40
2017,08,27,11,27,20.40
2017,08,27,11,28,20.50
2017,08,27,11,29,20.50
2017,08,27,11,30,20.50
2017,08,27,11,31,20.60
2017,08,27,11,32,20.60
2017,08,27,11,33,20.70
2017,08,27,11,34,20.70
2017,08,27,11,35,20.80
2017,08,27,11,36,20.90
2017,08,27,11,37,21.00
2017,08,27,11,38,21.10
2017,08,27,11,39,21.10
2017,08,27,11,40,21.10
2017,08,27,11,41,21.10
2017,08,27,11,42,21.20
2017,08,27,11,43,21.20
2017,08,27,11,44,21.20
2017,08,27,11,45,21.20
2017,08,27,11,46,21.30
2017,08,27,11,47,21.30
2017,08,27,11,48,21.30
2017,08,27,11,49,21.20
2017,08,27,11,50,21.20
2017,08,27,11,51,21.10
2017,08,27,11,52,21.10
2017,08,27,11,53,21.10
2017,08,27,11,54,21.10
2017,08,27,11,55,21.10
2017,08,27,11,56,21.20
2017,08,27,11,57,21.20
2017,08,27,11,58,21.30
2017,08,27,11,59,21.30
2017,08,27,12,00,21.40
2017,08,27,12,01,21.50
2017,08,27,12,02,21.60
2017,08,27,12,03,21.60
2017,08,27,12,04,21.70
2017,08,27,12,05,21.70
2017,08,27,12,06,21.80
2017,08,27,12,07,21.70
2017,08,27,12,08,21.80
2017,08,27,12,09,21.80
2017,08,27,12,10,21.80
2017,08,27,12,11,21.70
2017,08,27,12,12,21.70
2017,08,27,12,13,21.70
2017,08,27,12,14,21.70
2017,08,27,12,15,21.70
2017,08,27,12,16,21.70
2017,08,27,12,17,21.70
2017,08,27,12,18,21.70
2017,08,27,12,19,21.70
2017,08,27,12,20,21.80
2017,08,27,12,21,21.80
2017,08,27,12,22,21.90
2017,08,27,12,23,21.90
2017,08,27,12,24,21.90
2017,08,27,12,25,21.90
2017,08,27,12,26,21.90
2017,08,27,12,27,22.00
2017,08,27,12,28,22.10
2017,08,27,12,29,22.20
2017,08,27,12,30,22.20
2017,08,27,12,31,22.30
2017,08,27,12,32,22.40
2017,08,27,12,33,22.40
2017,08,27,12,34,22.30
2017,08,27,12,35,22.20
2017,08,27,12,36,22.00
2017,08,27,12,37,21.80
2017,08,27,12,38,21.60
2017,08,27,12,39,21.60
2017,08,27,12,40,21.60
2017,08,27,12,41,21.70
2017,08,27,12,42,21.70
2017,08,27,12,43,21.80
2017,08,27,12,44,21.90
2017,08,27,12,45,22.00
2017,08,27,12,46,22.10
2017,08,27,12,47,22.10
2017,08,27,12,48,22.10
2017,08,27,12,49,22.10
2017,08,27,12,50,22.10
2017,08,27,12,51,22.20
2017,08,27,12,52,22.20
2017,08,27,12,53,22.20
2017,08,27,12,54,22.30
2017,08,27,12,55,22.30
2017,08,27,12,56,22.40
2017,08,27,12,57,22.50
2017,08,27,12,58,22.60
2017,08,27,12,59,22.70
2017,08,27,13,00,22.80
2017,08,27,13,01,22.80
2017,08,27,13,02,22.90
2017,08,27,13,03,23.00
2017,08,27,13,04,23.00
2017,08,27,13,05,23.10
2017,08,27,13,06,23.10
2017,08,27,13,07,23.10
2017,08,27,13,08,23.10
2017,08,27,13,09,23.10
2017,08,27,13,10,23.10
2017,08,27,13,11,23.10
2017,08,27,13,12,23.00
2017,08,27,13,13,22.90
2017,08,27,13,14,22.90
2017,08,27,13,15,22.90
2017,08,27,13,16,22.90
2017,08,27,13,17,23.00
2017,08,27,13,18,23.00
2017,08,27,13,19,23.00
2017,08,27,13,20,23.10
2017,08,27,13,21,23.10
2017,08,27,13,22,23.20
2017,08,27,13,23,23.20
2017,08,27,13,24,23.20
2017,08,27,13,25,23.30
2017,08,27,13,26,23.30
2017,08,27,13,27,23.40
2017,08,27,13,28,23.40
2017,08,27,13,29,23.40
2017,08,27,13,30,23.40
2017,08,27,13,31,23.50
2017,08,27,13,32,23.50
2017,08,27,13,33,23.60
2017,08,27,13,34,23.70
2017,08,27,13,35,23.80
2017,08,27,13,36,23.80
2017,08,27,13,37,23.80
2017,08,27,13,38,23.90
2017,08,27,13,39,24.00
2017,08,27,13,40,24.00
2017,08,27,13,41,24.10
2017,08,27,13,42,24.10
2017,08,27,13,43,24.10
2017,08,27,13,44,24.10
2017,08,27,13,45,24.00
2017,08,27,13,46,24.00
2017,08,27,13,47,23.90
2017,08,27,13,48,23.90
2017,08,27,13,49,24.00
2017,08,27,13,50,24.00
2017,08,27,13,51,24.10
2017,08,27,13,52,24.20
2017,08,27,13,53,24.20
2017,08,27,13,54,24.20
2017,08,27,13,55,24.20
2017,08,27,13,56,24.20
2017,08,27,13,57,24.20
2017,08,27,13,58,24.20
2017,08,27,13,59,24.20
2017,08,27,14,00,24.30
2017,08,27,14,01,24.30
2017,08,27,14,02,24.40
2017,08,27,14,03,24.50
2017,08,27,14,04,24.50
2017,08,27,14,05,24.60
2017,08,27,14,06,24.70
2017,08,27,14,07,24.70
2017,08,27,14,08,24.80
2017,08,27,14,09,24.80
2017,08,27,14,10,24.90
2017,08,27,14,11,25.00
2017,08,27,14,12,25.10
2017,08,27,14,13,25.20
2017,08,27,14,14,25.30
2017,08,27,14,15,25.40
2017,08,27,14,16,25.50
2017,08,27,14,17,25.60
2017,08,27,14,18,25.70
2017,08,27,14,19,25.70
2017,08,27,14,20,25.70
2017,08,27,14,21,25.70
2017,08,27,14,22,25.70
2017,08,27,14,23,25.70
2017,08,27,14,24,25.70
2017,08,27,14,25,25.70
2017,08,27,14,26,25.70
2017,08,27,14,27,25.70
2017,08,27,14,28,25.70
2017,08,27,14,29,25.70
2017,08,27,14,30,25.70
2017,08,27,14,31,25.70
2017,08,27,14,32,25.80
2017,08,27,14,33,25.80
2017,08,27,14,34,25.80
2017,08,27,14,35,25.80
2017,08,27,14,36,25.80
2017,08,27,14,37,25.70
2017,08,27,14,38,25.70
2017,08,27,14,39,25.70
2017,08,27,14,40,25.70
2017,08,27,14,41,25.70
2017,08,27,14,42,25.70
2017,08,27,14,43,25.70
2017,08,27,14,44,25.80
2017,08,27,14,45,25.80
2017,08,27,14,46,25.90
2017,08,27,14,47,25.90
2017,08,27,14,48,26.00
2017,08,27,14,49,26.00
2017,08,27,14,50,26.10
2017,08,27,14,51,26.20
2017,08,27,14,52,26.20
2017,08,27,14,53,26.20
2017,08,27,14,54,26.20
2017,08,27,14,55,26.20
2017,08,27,14,56,26.10
2017,08,27,14,57,26.10
2017,08,27,14,58,26.10
2017,08,27,14,59,26.10
2017,08,27,15,00,26.10
2017,08,27,15,01,26.10
2017,08,27,15,02,26.00
2017,08,27,15,03,26.00
2017,08,27,15,04,26.00
2017,08,27,15,05,26.00
2017,08,27,15,06,26.00
2017,08,27,15,07,26.10
2017,08,27,15,08,26.10
2017,08,27,15,09,26.10
2017,08,27,15,10,26.10
2017,08,27,15,11,26.10
2017,08,27,15,12,26.10
2017,08,27,15,13,26.00
2017,08,27,15,14,26.00
2017,08,27,15,15,26.00
2017,08,27,15,16,26.00
2017,08,27,15,17,26.00
2017,08,27,15,18,26.10
2017,08,27,15,19,26.10
2017,08,27,15,20,26.20
2017,08,27,15,21,26.20
2017,08,27,15,22,26.30
2017,08,27,15,23,26.40
2017,08,27,15,24,26.40
2017,08,27,15,25,26.50
2017,08,27,15,26,26.60
2017,08,27,15,27,26.70
2017,08,27,15,28,26.70
2017,08,27,15,29,26.70
2017,08,27,15,30,26.80
2017,08,27,15,31,26.80
2017,08,27,15,32,26.80
2017,08,27,15,33,26.80
2017,08,27,15,34,26.80
2017,08,27,15,35,26.80
2017,08,27,15,36,26.90
2017,08,27,15,37,26.80
2017,08,27,15,38,26.80
2017,08,27,15,39,26.80
2017,08,27,15,40,26.90
2017,08,27,15,41,26.90
2017,08,27,15,42,27.00
2017,08,27,15,43,27.10
2017,08,27,15,44,27.20
2017,08,27,15,45,27.20
2017,08,27,15,46,27.30
2017,08,27,15,47,27.40
2017,08,27,15,48,27.50
2017,08,27,15,49,27.70
2017,08,27,15,50,27.70
2017,08,27,15,51,27.80
2017,08,27,15,52,27.80
2017,08,27,15,53,27.80
2017,08,27,15,54,27.90
2017,08,27,15,55,27.90
2017,08,27,15,56,27.90
2017,08,27,15,57,27.80
2017,08,27,15,58,27.70
2017,08,27,15,59,27.60
2017,08,27,16,00,27.60
2017,08,27,16,01,27.50
2017,08,27,16,02,27.50
2017,08,27,16,03,27.40
2017,08,27,16,04,27.30
2017,08,27,16,05,27.30
2017,08,27,16,06,27.20
2017,08,27,16,07,27.20
2017,08,27,16,08,27.10
2017,08,27,16,09,27.00
2017,08,27,16,10,27.00
2017,08,27,16,11,26.90
2017,08,27,16,12,27.00
2017,08,27,16,13,27.10
2017,08,27,16,14,27.10
2017,08,27,16,15,27.10
2017,08,27,16,16,27.00
2017,08,27,16,17,26.90
2017,08,27,16,18,26.80
2017,08,27,16,19,26.80
2017,08,27,16,20,26.80
2017,08,27,16,21,26.80
2017,08,27,16,22,26.80
2017,08,27,16,23,26.80
2017,08,27,16,24,26.70
2017,08,27,16,25,26.70
2017,08,27,16,26,26.70
2017,08,27,16,27,26.70
2017,08,27,16,28,26.60
2017,08,27,16,29,26.60
2017,08,27,16,30,26.60
2017,08,27,16,31,26.60
2017,08,27,16,32,26.70
2017,08,27,16,33,26.80
2017,08,27,16,34,26.80
2017,08,27,16,35,26.90
2017,08,27,16,36,27.00
2017,08,27,16,37,27.00
2017,08,27,16,38,26.90
2017,08,27,16,39,26.80
2017,08,27,16,40,26.70
2017,08,27,16,41,26.60
2017,08,27,16,42,26.50
2017,08,27,16,43,26.50
2017,08,27,16,44,26.60
2017,08,27,16,45,26.60
2017,08,27,16,46,26.60
2017,08,27,16,47,26.70
2017,08,27,16,48,26.70
2017,08,27,16,49,26.80
2017,08,27,16,50,26.80
2017,08,27,16,51,26.90
2017,08,27,16,52,26.90
2017,08,27,16,53,27.00
2017,08,27,16,54,27.10
2017,08,27,16,55,27.00
2017,08,27,16,56,26.90
2017,08,27,16,57,26.90
2017,08,27,16,58,26.90
2017,08,27,16,59,26.90
2017,08,27,17,00,26.90
2017,08,27,17,01,26.90
2017,08,27,17,02,27.00
2017,08,27,17,03,27.00
2017,08,27,17,04,27.00
2017,08,27,17,05,27.00
2017,08,27,17,06,26.90
2017,08,27,17,07,26.90
2017,08,27,17,08,26.80
2017,08,27,17,09,26.80
2017,08,27,17,10,26.80
2017,08,27,17,11,26.90
2017,08,27,17,12,26.90
2017,08,27,17,13,27.00
2017,08,27,17,14,27.00
2017,08,27,17,15,27.00
2017,08,27,17,16,27.00
2017,08,27,17,17,26.90
2017,08,27,17,18,26.90
2017,08,27,17,19,26.80